User: anonymous   Login
Location: Fort Wayne
(41.1310°N, 85.1290°W)
Time: 02:27:51
(UTC-04:00)
Language:

Gbstr 26 Del rocket - Orbit

View from above orbital plane
View from above orbital plane
View from above satellite
View from above satellite

Ground track
Ground track

The orbit data is extracted from the following two-line orbital elements,

1 25876U 99041E   15216.15669846  .00000129  00000-0  62425-4 0  9996
2 25876 051.7658 130.4996 0534809 198.1345 159.9839 14.03367498818673
Epoch (UTC): 04 August 2015 03:45:38
Eccentricity: 0.0534809
inclination: 51.7658°
perigee height: 494 km
apogee height: 1270 km
right ascension of ascending node: 130.4996°
argument of perigee: 198.1345°
revolutions per day: 14.03367498
mean anomaly at epoch: 159.9839°
orbit number at epoch: 81867

The dashed part of the orbit path shows where the satellite is in the earth's shadow,  

DLR